Mora, MN

5:06 PM CDT on March 22, 2017 (GMT -0500)
Mora Municipal

Weather History for KJMR - March, 2013

Change the Weather History Date:

Friday, March 15, 2013

  Actual Average Record
Temperature  
Mean Temperature 26 °F -  
Max Temperature 32 °F 38 °F 64 °F (2015)
Min Temperature 19 °F 15 °F -13 °F (1979)
Degree Days  
Heating Degree Days 38    
Moisture  
Dew Point 23 °F    
Average Humidity 79    
Maximum Humidity 93    
Minimum Humidity 51    
Precipitation  
Precipitation 0.13 in - - ()
Sea Level Pressure  
Sea Level Pressure 29.95 in    
Wind  
Wind Speed 4 mph (NE)    
Max Wind Speed 10 mph    
Max Gust Speed 17 mph    
Visibility 5 miles    
Events Snow    
Averages and records for this station are not official NWS values.
T = Trace of Precipitation, MM = Missing Value Source: NWS Daily Summary

Daily Weather History Graph

Daily Weather History Graph

Search for Another Location

Airport or City:

Trip Planner

Search our weather history database for the weather conditions in past years. The results will help you decide how hot, cold, wet, or windy it might be!

Date:

Astronomy

Mar. 15, 2013 Rise Set
Actual Time 7:25 AM CDT 7:19 PM CDT
Civil Twilight 6:55 AM CDT 7:49 PM CDT
Nautical Twilight 6:20 AM CDT 8:23 PM CDT
Astronomical Twilight 5:45 AM CDT 8:59 PM CDT
Moon 9:01 AM CDT (3/15) 11:49 PM CDT (3/15)
Length of Visible Light 12h 53m
Length of Day
11h 54m
Waxing Crescent, 15% of the Moon is Illuminated
Mar 15
Waxing Crescent
Mar 19
First Quarter
Mar 27
Full
Apr 2
Last Quarter
Apr 10
New

Hourly Weather History & Observations

Time (CDT) Temp. Windchill Dew Point Humidity Pressure Visibility Wind Dir Wind Speed Gust Speed Precip Events Conditions
12:12 AM 28.4 °F - 24.8 °F 86% 29.99 in 7.0 mi Calm Calm - N/A   Clear
12:32 AM 30.2 °F - 23.0 °F 75% 29.99 in 7.0 mi Calm Calm - N/A   Clear
12:52 AM 28.4 °F - 23.0 °F 80% 29.99 in 7.0 mi Calm Calm - N/A   Clear
1:12 AM 28.4 °F - 23.0 °F 80% 29.98 in 7.0 mi Calm Calm - N/A   Clear
1:32 AM 28.4 °F - 23.0 °F 80% 29.97 in 7.0 mi Calm Calm - N/A   Scattered Clouds
1:52 AM 28.4 °F - 23.0 °F 80% 29.97 in 7.0 mi Calm Calm - N/A   Mostly Cloudy
2:12 AM 28.4 °F - 23.0 °F 80% 29.97 in 7.0 mi Calm Calm - N/A   Overcast
2:32 AM 28.4 °F - 23.0 °F 80% 29.96 in 7.0 mi Calm Calm - N/A   Overcast
2:52 AM 28.4 °F - 23.0 °F 80% 29.96 in 5.0 mi Calm Calm - N/A   Overcast
3:11 AM 30.2 °F 24.3 °F 26.6 °F 86% 29.97 in 7.0 mi NW 5.8 mph - N/A   Overcast
3:32 AM 32.0 °F 26.4 °F 26.6 °F 80% 29.97 in 10.0 mi NW 5.8 mph - N/A   Overcast
3:51 AM 32.0 °F 27.5 °F 26.6 °F 80% 29.97 in 10.0 mi NW 4.6 mph - N/A   Overcast
4:12 AM 32.0 °F 26.4 °F 26.6 °F 80% 29.98 in 7.0 mi NW 5.8 mph - N/A Snow Light Snow
4:32 AM 32.0 °F 25.6 °F 26.6 °F 80% 29.98 in 1.8 mi NW 6.9 mph - N/A Snow Light Snow
4:52 AM 30.2 °F 23.4 °F 26.6 °F 86% 29.98 in 1.5 mi NNW 6.9 mph - 0.01 in Snow Light Snow
5:12 AM 30.2 °F 24.3 °F 26.6 °F 86% 29.98 in 1.2 mi NNW 5.8 mph - N/A Snow Snow
5:32 AM 30.2 °F 26.7 °F 26.6 °F 86% 29.97 in 1.0 mi North 3.5 mph - 0.01 in Snow Light Snow
5:52 AM 30.2 °F 26.7 °F 28.4 °F 93% 29.97 in 1.2 mi North 3.5 mph - 0.03 in Snow Light Snow
6:12 AM 30.2 °F 26.7 °F 28.4 °F 93% 29.97 in 1.5 mi North 3.5 mph - 0.01 in Snow Light Snow
6:32 AM 30.2 °F 26.7 °F 28.4 °F 93% 29.96 in 1.5 mi NNE 3.5 mph - 0.02 in Snow Light Snow
6:52 AM 32.0 °F 28.7 °F 28.4 °F 87% 29.96 in 1.8 mi NE 3.5 mph - 0.03 in Snow Light Snow
7:12 AM 32.0 °F 27.5 °F 28.4 °F 87% 29.96 in 1.8 mi NE 4.6 mph - N/A Snow Light Snow
7:32 AM 32.0 °F 27.5 °F 28.4 °F 87% 29.96 in 2.0 mi NNE 4.6 mph - 0.01 in Snow Light Snow
7:52 AM 32.0 °F - 30.2 °F 93% 29.96 in 1.0 mi Calm Calm - 0.01 in Snow Light Snow
8:12 AM 32.0 °F - 30.2 °F 93% 29.97 in 1.0 mi Calm Calm - 0.01 in Snow Light Snow
8:32 AM 32.0 °F - 30.2 °F 93% 29.97 in 1.0 mi Calm Calm - 0.02 in Snow Light Snow
8:52 AM 32.0 °F 27.5 °F 30.2 °F 93% 29.97 in 0.8 mi NE 4.6 mph - 0.03 in Snow Light Snow
9:12 AM 32.0 °F 28.7 °F 30.2 °F 93% 29.97 in 1.0 mi NE 3.5 mph - N/A Snow Light Snow
9:31 AM 32.0 °F 27.5 °F 30.2 °F 93% 29.97 in 1.0 mi NE 4.6 mph - 0.01 in Snow Light Snow
9:52 AM 32.0 °F 24.8 °F 28.4 °F 87% 29.97 in 1.2 mi NE 8.1 mph - 0.01 in Snow Light Snow
10:12 AM 32.0 °F 24.8 °F 28.4 °F 87% 29.97 in 4.0 mi NE 8.1 mph - N/A Snow Light Snow
10:32 AM 32.0 °F 24.8 °F 26.6 °F 80% 29.97 in 10.0 mi NE 8.1 mph - N/A Snow Light Snow
10:52 AM 32.0 °F 26.4 °F 26.6 °F 80% 29.96 in 10.0 mi ENE 5.8 mph - N/A   Overcast
11:12 AM 32.0 °F 23.6 °F 26.6 °F 80% 29.95 in 10.0 mi ENE 10.4 mph 16.1 mph N/A   Overcast
11:32 AM 32.0 °F 25.6 °F 24.8 °F 75% 29.95 in 7.0 mi East 6.9 mph - N/A Snow Light Snow
11:52 AM 32.0 °F 24.8 °F 24.8 °F 75% 29.95 in 10.0 mi East 8.1 mph - N/A   Overcast
12:12 PM 32.0 °F 24.8 °F 23.0 °F 69% 29.96 in 10.0 mi ENE 8.1 mph - N/A Snow Light Snow
12:32 PM 32.0 °F 27.5 °F 21.2 °F 64% 29.97 in 10.0 mi ENE 4.6 mph - N/A Snow Light Snow
12:52 PM 32.0 °F 24.2 °F 21.2 °F 64% 29.97 in 10.0 mi NE 9.2 mph - N/A Snow Light Snow
1:12 PM 32.0 °F 24.8 °F 21.2 °F 64% 29.96 in 10.0 mi ENE 8.1 mph - N/A Snow Light Snow
1:32 PM 32.0 °F 25.6 °F 21.2 °F 64% 29.95 in 10.0 mi ENE 6.9 mph - N/A   Overcast
1:52 PM 32.0 °F 24.2 °F 19.4 °F 60% 29.94 in 10.0 mi East 9.2 mph - N/A   Overcast
2:12 PM 32.0 °F 24.8 °F 19.4 °F 60% 29.96 in 10.0 mi NE 8.1 mph - N/A   Overcast
2:31 PM 32.0 °F 27.5 °F 19.4 °F 60% 29.94 in 10.0 mi ENE 4.6 mph - N/A   Overcast
2:52 PM 32.0 °F 25.6 °F 19.4 °F 60% 29.93 in 10.0 mi East 6.9 mph - N/A   Overcast
3:12 PM 32.0 °F 28.7 °F 19.4 °F 60% 29.93 in 10.0 mi ENE 3.5 mph - N/A   Overcast
3:32 PM 32.0 °F 28.7 °F 19.4 °F 60% 29.92 in 10.0 mi ENE 3.5 mph - N/A   Overcast
3:52 PM 32.0 °F 26.4 °F 17.6 °F 55% 29.91 in 10.0 mi NE 5.8 mph - N/A   Overcast
4:12 PM 30.2 °F 24.3 °F 15.8 °F 55% 29.90 in 10.0 mi NE 5.8 mph - N/A   Overcast
4:32 PM 30.2 °F 23.4 °F 15.8 °F 55% 29.90 in 10.0 mi NE 6.9 mph - N/A   Overcast
4:52 PM 30.2 °F 23.4 °F 14.0 °F 51% 29.90 in 10.0 mi NE 6.9 mph - N/A   Overcast
5:12 PM 28.4 °F 22.2 °F 12.2 °F 51% 29.90 in 10.0 mi NE 5.8 mph - N/A   Overcast
5:32 PM 26.6 °F 20.0 °F 12.2 °F 55% 29.91 in 10.0 mi NNE 5.8 mph - N/A   Overcast
6:11 PM 26.6 °F 18.2 °F 19.4 °F 74% 29.90 in 1.5 mi NE 8.1 mph 17.3 mph N/A Snow Light Snow
6:32 PM 24.8 °F 16.9 °F 19.4 °F 80% 29.92 in 0.8 mi NNE 6.9 mph - N/A Snow Snow
6:52 PM 24.8 °F 19.1 °F 19.4 °F 80% 29.92 in 0.5 mi NE 4.6 mph - N/A Snow Snow
7:12 PM 23.0 °F 14.7 °F 19.4 °F 86% 29.92 in 0.5 mi NE 6.9 mph - N/A Snow Snow
7:32 PM 21.2 °F 14.9 °F 19.4 °F 93% 29.92 in 1.2 mi NNE 4.6 mph - 0.01 in Snow Light Snow
7:52 PM 21.2 °F 13.6 °F 17.6 °F 86% 29.92 in 2.0 mi NE 5.8 mph - 0.01 in Snow Light Snow
8:12 PM 21.2 °F 11.7 °F 17.6 °F 86% 29.91 in 3.0 mi NE 8.1 mph - N/A Snow Light Snow
8:32 PM 21.2 °F 13.6 °F 19.4 °F 93% 29.92 in 2.0 mi NE 5.8 mph - N/A Snow Light Snow
8:51 PM 21.2 °F 13.6 °F 19.4 °F 93% 29.92 in 2.0 mi NE 5.8 mph - N/A Snow Light Snow
9:12 PM 21.2 °F 14.9 °F 17.6 °F 86% 29.93 in 3.0 mi NE 4.6 mph - N/A Snow Light Snow
9:32 PM 21.2 °F 12.6 °F 17.6 °F 86% 29.94 in 2.0 mi NE 6.9 mph - N/A Snow Light Snow
9:52 PM 21.2 °F 14.9 °F 17.6 °F 86% 29.93 in 3.0 mi NE 4.6 mph - N/A Snow Light Snow
10:12 PM 21.2 °F 16.4 °F 17.6 °F 86% 29.93 in 7.0 mi ENE 3.5 mph - N/A Snow Light Snow
10:32 PM 21.2 °F 14.9 °F 17.6 °F 86% 29.95 in 3.0 mi NNE 4.6 mph - N/A Snow Light Snow
10:52 PM 21.2 °F 13.6 °F 17.6 °F 86% 29.95 in 4.0 mi NE 5.8 mph - N/A Snow Light Snow
11:12 PM 21.2 °F 16.4 °F 17.6 °F 86% 29.95 in 5.0 mi NE 3.5 mph - N/A Snow Light Snow
11:32 PM 21.2 °F 14.9 °F 17.6 °F 86% 29.96 in 2.0 mi NNE 4.6 mph - N/A Snow Light Snow
11:52 PM 19.4 °F 12.8 °F 15.8 °F 86% 29.95 in 2.0 mi NE 4.6 mph - N/A Snow Light Snow